FW6934 Weather Reports


time (UTC)temp
C
wind
direction
speed
KPH
gust
KPH
rain 1hr
cm
rain 24hr
cm
rain mn
cm
humidity
%
barometer
mb
20260507153008 11 165 1.6 12.9 0.00 0.00 0.00 74 1009.0
20260507152558 11 235 3.2 9.7 0.00 0.00 0.00 75 1009.0
20260507152047 10 315 4.8 9.7 0.00 0.00 0.00 75 1009.0
20260507151516 10 286 0.0 9.7 0.00 0.00 0.00 76 1009.0
20260507151004 10 26 4.8 11.3 0.00 0.00 0.00 75 1009.0
20260507150555 10 298 3.2 8.0 0.00 0.00 0.00 75 1009.0
20260507150013 10 360 3.2 8.0 0.00 0.00 0.00 76 1009.0
20260507145502 10 42 4.8 9.7 0.00 0.00 0.00 76 1009.0
20260507145055 10 89 4.8 9.7 0.00 0.00 0.00 76 1009.0
20260507144515 10 284 1.6 8.0 0.00 0.00 0.00 76 1009.0
20260507144102 10 315 0.0 8.0 0.00 0.00 0.00 76 1009.0
20260507143551 10 250 3.2 8.0 0.00 0.00 0.00 76 1009.0
20260507143010 10 271 3.2 9.7 0.00 0.00 0.00 76 1009.0
20260507142559 10 262 3.2 9.7 0.00 0.00 0.00 76 1008.9
20260507142046 10 79 3.2 9.7 0.00 0.00 0.00 76 1008.8
20260507141508 10 35 0.0 4.8 0.00 0.00 0.00 76 1008.9
20260507141058 10 360 0.0 4.8 0.00 0.00 0.00 76 1008.8
20260507140546 10 22 1.6 4.8 0.00 0.00 0.00 76 1008.9
20260507140012 10 332 0.0 6.4 0.00 0.00 0.00 76 1008.8
20260507135502 10 355 3.2 6.4 0.00 0.00 0.00 76 1008.7
20260507135055 10 34 1.6 6.4 0.00 0.00 0.00 76 1008.7
20260507134510 10 84 1.6 6.4 0.00 0.00 0.00 76 1008.7
20260507134101 10 286 3.2 11.3 0.00 0.00 0.00 76 1008.7
20260507133549 10 281 0.0 11.3 0.00 0.00 0.00 76 1008.7
20260507133010 10 331 1.6 4.8 0.00 0.00 0.00 76 1008.5
20260507132601 10 62 0.0 4.8 0.00 0.00 0.00 76 1008.6
20260507132048 10 306 1.6 4.8 0.00 0.00 0.00 76 1008.5
20260507131518 10 348 0.0 4.8 0.00 0.00 0.00 76 1008.4
20260507131052 10 347 1.6 6.4 0.00 0.00 0.00 76 1008.4
20260507130544 10 19 1.6 6.4 0.00 0.00 0.00 76 1008.5
20260507130110 10 339 1.6 4.8 0.00 0.00 0.00 76 1008.5
20260507125550 10 336 0.0 4.8 0.00 0.00 0.00 76 1008.4
20260507125035 10 336 1.6 4.8 0.00 0.00 0.00 76 1008.4
20260507124505 10 340 1.6 4.8 0.00 0.00 0.00 76 1008.4
20260507124057 10 348 0.0 6.4 0.00 0.00 0.00 76 1008.4
20260507123546 10 348 1.6 6.4 0.00 0.00 0.00 76 1008.4
20260507123005 10 333 0.0 6.4 0.00 0.00 0.00 76 1008.5
20260507122555 10 333 1.6 6.4 0.00 0.00 0.00 76 1008.5
20260507122043 10 355 3.2 6.4 0.00 0.00 0.00 76 1008.6
20260507121505 10 19 3.2 6.4 0.00 0.00 0.00 76 1008.6
20260507121056 10 107 0.0 4.8 0.00 0.00 0.00 76 1008.6
20260507120547 10 342 0.0 8.0 0.00 0.00 0.00 76 1008.6
20260507120005 10 316 0.0 4.8 0.00 0.00 0.00 76 1008.7
20260507115553 10 313 0.0 4.8 0.00 0.00 0.00 76 1008.8
20260507115041 10 319 1.6 11.3 0.00 0.00 0.00 76 1008.8
20260507114512 10 298 3.2 11.3 0.00 0.00 0.00 76 1008.8
20260507114104 10 306 0.0 3.2 0.00 0.00 0.00 76 1008.8
20260507113556 10 306 0.0 4.8 0.00 0.00 0.00 76 1008.7
20260507113012 10 304 0.0 4.8 0.00 0.00 0.00 76 1008.8
20260507112501 10 273 1.6 4.8 0.00 0.00 0.00 76 1008.8
20260507112054 10 263 1.6 3.2 0.00 0.00 0.00 76 1008.8
20260507111512 10 56 0.0 3.2 0.00 0.00 0.00 76 1008.9
20260507111102 11 55 0.0 6.4 0.00 0.00 0.00 76 1008.9
20260507110550 11 56 1.6 8.0 0.00 0.00 0.00 76 1008.9
20260507110008 11 321 3.2 8.0 0.00 0.00 0.00 76 1008.9
20260507105559 11 340 1.6 11.3 0.00 0.00 0.00 76 1008.9
20260507105049 11 312 0.0 8.0 0.00 0.00 0.00 77 1009.0
20260507104505 11 82 1.6 8.0 0.00 0.00 0.00 76 1009.0
20260507104055 11 34 1.6 6.4 0.00 0.00 0.00 77 1009.0
20260507103544 11 46 0.0 4.8 0.00 0.00 0.00 77 1009.0
20260507103003 11 332 0.0 6.4 0.00 0.00 0.00 77 1009.0
20260507102554 11 323 1.6 6.4 0.00 0.00 0.00 76 1009.1
20260507102042 11 313 1.6 8.0 0.00 0.00 0.00 76 1009.1
20260507101503 11 304 1.6 8.0 0.00 0.00 0.00 76 1009.2
20260507101053 11 292 3.2 6.4 0.00 0.00 0.00 76 1009.1
20260507100540 11 355 1.6 9.7 0.00 0.00 0.00 76 1009.2
20260507100113 11 348 3.2 9.7 0.00 0.00 0.00 76 1009.1
20260507095550 11 72 3.2 9.7 0.00 0.00 0.00 76 1009.3
20260507095039 11 14 3.2 9.7 0.00 0.00 0.00 76 1009.3
20260507094600 11 23 3.2 8.0 0.00 0.00 0.00 76 1009.3
20260507094049 11 341 3.2 8.0 0.00 0.00 0.00 76 1009.3
20260507093537 11 334 0.0 8.0 0.00 0.00 0.00 76 1009.3
20260507093100 11 336 3.2 8.0 0.00 0.00 0.00 76 1009.3
20260507092546 11 19 1.6 8.0 0.00 0.00 0.00 76 1009.4
20260507092036 11 325 3.2 8.0 0.00 0.00 0.00 76 1009.4
20260507091559 11 16 3.2 8.0 0.00 0.00 0.00 76 1009.4
20260507091047 11 355 3.2 8.0 0.00 0.00 0.00 77 1009.6
20260507090535 11 34 4.8 8.0 0.00 0.00 0.00 77 1009.6
20260507090055 11 5 1.6 6.4 0.00 0.00 0.00 77 1009.6
20260507085544 11 343 0.0 6.4 0.00 0.00 0.00 77 1009.7
20260507085033 11 344 3.2 6.4 0.00 0.00 0.00 77 1009.7
20260507084559 11 305 0.0 4.8 0.00 0.00 0.00 77 1009.7
20260507084044 11 305 0.0 4.8 0.00 0.00 0.00 77 1009.6
20260507083533 11 334 0.0 3.2 0.00 0.00 0.00 78 1009.5
20260507083004 11 294 0.0 6.4 0.00 0.00 0.00 78 1009.5
20260507082553 11 285 1.6 6.4 0.00 0.00 0.00 78 1009.7
20260507082045 11 342 1.6 6.4 0.00 0.00 0.00 78 1009.6
20260507081501 11 355 1.6 6.4 0.00 0.00 0.00 78 1009.6
20260507081052 11 317 1.6 6.4 0.00 0.00 0.00 78 1009.5
20260507080541 11 12 1.6 8.0 0.00 0.00 0.00 78 1009.5
20260507075548 11 320 0.0 4.8 0.00 0.00 0.00 78 1009.6
20260507075037 11 355 3.2 4.8 0.00 0.00 0.00 78 1009.6
20260507074625 11 266 0.0 4.8 0.00 0.00 0.00 78 1009.6
20260507074048 11 237 0.0 4.8 0.00 0.00 0.00 78 1009.5
20260507073537 11 355 0.0 6.4 0.00 0.00 0.00 78 1009.5
20260507073008 11 355 3.2 6.4 0.00 0.00 0.00 78 1009.5
20260507072558 11 345 0.0 8.0 0.00 0.00 0.00 78 1009.6
20260507072051 12 5 3.2 12.9 0.00 0.00 0.00 78 1009.5
20260507071509 12 11 1.6 8.0 0.00 0.00 0.00 78 1009.5
20260507071057 12 5 3.2 8.0 0.00 0.00 0.00 78 1009.5
20260507070546 12 336 0.0 6.4 0.00 0.00 0.00 78 1009.4
20260507070008 12 262 0.0 4.8 0.00 0.00 0.00 78 1009.3
20260507065554 12 267 0.0 4.8 0.00 0.00 0.00 78 1009.3
20260507065043 12 267 1.6 4.8 0.00 0.00 0.00 78 1009.3
20260507064507 12 319 0.0 6.4 0.00 0.00 0.00 78 1009.4
20260507064055 12 360 0.0 6.4 0.00 0.00 0.00 77 1009.4
20260507063543 12 35 0.0 4.8 0.00 0.00 0.00 77 1009.6
20260507063005 12 307 0.0 4.8 0.00 0.00 0.00 77 1009.5
20260507062555 12 303 0.0 6.4 0.00 0.00 0.00 77 1009.5
20260507062043 12 74 1.6 8.0 0.00 0.00 0.00 77 1009.5
20260507061503 12 327 3.2 9.7 0.00 0.00 0.00 76 1009.6
20260507061053 12 248 3.2 12.9 0.00 0.00 0.00 76 1009.5
20260507060541 12 311 4.8 12.9 0.00 0.00 0.00 76 1009.6
20260507060105 12 69 3.2 16.1 0.00 0.00 0.00 76 1009.6
20260507055549 13 340 6.4 16.1 0.00 0.00 0.00 76 1009.5
20260507055036 13 277 3.2 12.9 0.00 0.00 0.00 76 1009.4
20260507054506 13 350 4.8 12.9 0.00 0.00 0.00 76 1009.4
20260507054053 13 11 3.2 9.7 0.00 0.00 0.00 76 1009.4
20260507053542 13 42 4.8 12.9 0.00 0.00 0.00 75 1009.4
20260507053003 13 349 4.8 12.9 0.00 0.00 0.00 76 1009.3
20260507052555 13 34 3.2 6.4 0.00 0.00 0.00 75 1009.2
20260507052040 13 350 1.6 6.4 0.00 0.00 0.00 75 1009.1
20260507051510 13 77 1.6 6.4 0.00 0.00 0.00 75 1009.1
20260507051104 13 282 3.2 6.4 0.00 0.00 0.00 75 1009.2
20260507050552 13 290 0.0 4.8 0.00 0.00 0.00 75 1009.2
20260507050008 13 284 0.0 4.8 0.00 0.00 0.00 74 1009.1
20260507045601 13 14 1.6 4.8 0.00 0.00 0.00 74 1009.2
20260507045046 14 311 1.6 8.0 0.00 0.00 0.00 74 1009.2
20260507044507 14 315 3.2 9.7 0.00 0.00 0.00 74 1009.3
20260507044102 14 302 3.2 9.7 0.00 0.00 0.00 74 1009.2
20260507043546 14 297 0.0 16.1 0.00 0.00 0.00 73 1009.2
20260507043008 14 312 6.4 16.1 0.00 0.00 0.00 73 1009.1
20260507042558 15 315 4.8 16.1 0.00 0.00 0.00 73 1009.0
20260507042046 15 329 8.0 16.1 0.00 0.00 0.00 73 1009.1
20260507041513 15 29 6.4 19.3 0.00 0.00 0.00 74 1009.0
20260507041055 15 334 3.2 19.3 0.00 0.00 0.00 73 1009.0
20260507040541 15 355 4.8 11.3 0.00 0.00 0.00 75 1008.9
20260507040008 15 34 3.2 9.7 0.00 0.00 0.00 75 1008.8
20260507035558 16 321 3.2 8.0 0.00 0.00 0.00 75 1008.8
20260507035047 16 327 3.2 12.9 0.00 0.00 0.00 75 1008.6
20260507034511 16 329 4.8 12.9 0.00 0.00 0.00 75 1008.6
20260507034057 16 329 3.2 8.0 0.00 0.00 0.00 74 1008.5
20260507033547 16 19 3.2 8.0 0.00 0.00 0.00 74 1008.4
20260507033007 16 34 1.6 8.0 0.00 0.00 0.00 74 1008.3
20260507032557 16 26 4.8 9.7 0.00 0.00 0.00 74 1008.2
20260507032046 16 29 1.6 9.7 0.00 0.00 0.00 74 1008.2
20260507031505 16 14 4.8 11.3 0.00 0.00 0.00 74 1008.1
20260507031056 16 317 3.2 9.7 0.00 0.00 0.00 73 1008.0
20260507030539 17 52 3.2 9.7 0.00 0.00 0.00 73 1008.0
20260507030100 17 15 3.2 8.0 0.00 0.00 0.00 73 1007.9
20260507025549 17 360 1.6 8.0 0.00 0.00 0.00 73 1007.9
20260507025037 17 9 1.6 9.7 0.00 0.00 0.00 72 1007.9
20260507024505 17 30 1.6 9.7 0.00 0.00 0.00 73 1007.8
20260507024054 17 279 0.0 8.0 0.00 0.00 0.00 72 1007.8
20260507023549 17 355 3.2 8.0 0.00 0.00 0.00 71 1007.7
20260507023002 17 5 1.6 9.7 0.00 0.00 0.00 70 1007.7
20260507022554 17 15 4.8 9.7 0.00 0.00 0.00 71 1007.7
20260507022042 18 346 3.2 8.0 0.00 0.00 0.00 71 1007.7
20260507021502 18 344 3.2 6.4 0.00 0.00 0.00 70 1007.7
20260507021055 18 355 3.2 8.0 0.00 0.00 0.00 70 1007.6
20260507020541 18 22 3.2 8.0 0.00 0.00 0.00 70 1007.7
20260507020112 18 21 3.2 8.0 0.00 0.00 0.00 70 1007.7
20260507015551 18 40 3.2 9.7 0.00 0.00 0.00 69 1007.7
20260507015039 18 44 1.6 12.9 0.00 0.00 0.00 70 1007.7
20260507014609 18 20 1.6 12.9 0.00 0.00 0.00 68 1007.8
20260507014051 19 348 4.8 9.7 0.00 0.00 0.00 69 1007.8
20260507013538 19 33 3.2 14.5 0.00 0.00 0.00 68 1007.7
20260507013003 19 336 3.2 12.9 0.00 0.00 0.00 69 1007.7
20260507012553 19 14 4.8 11.3 0.00 0.00 0.00 69 1007.7
20260507012044 20 53 1.6 9.7 0.00 0.00 0.00 68 1007.7
20260507011503 20 351 4.8 9.7 0.00 0.00 0.00 69 1007.7
20260507011053 20 16 3.2 8.0 0.00 0.00 0.00 68 1007.7
20260507010541 20 61 3.2 12.9 0.00 0.00 0.00 70 1007.7
20260507005551 20 246 1.6 12.9 0.00 0.00 0.00 71 1007.6
20260507005039 20 5 4.8 12.9 0.00 0.00 0.00 70 1007.6
20260507004500 20 5 1.6 12.9 0.00 0.00 0.00 69 1007.6
20260507004051 20 314 4.8 12.9 0.00 0.00 0.00 68 1007.6
20260507003540 20 350 6.4 14.5 0.00 0.00 0.00 68 1007.5
20260507003101 20 71 8.0 14.5 0.00 0.00 0.00 67 1007.6
20260507002548 21 355 3.2 8.0 0.00 0.00 0.00 68 1007.5
20260507002036 21 319 3.2 12.9 0.00 0.00 0.00 67 1007.5
20260507001504 21 16 4.8 12.9 0.00 0.00 0.00 68 1007.5
20260507001056 21 324 1.6 12.9 0.00 0.00 0.00 67 1007.3
20260507000546 21 321 0.0 1.6 0.00 0.00 0.00 67 1007.5
20260507000002 21 36 0.0 0.0 0.00 0.00 0.00 65 1007.3
20260506235552 21 36 0.0 6.4 0.00 0.00 0.00 65 1007.4
20260506235042 21 36 3.2 6.4 0.00 0.00 0.00 68 1007.4
20260506234612 21 30 0.0 4.8 0.00 0.00 0.00 67 1007.4
20260506234053 21 348 1.6 4.8 0.00 0.00 0.00 65 1007.3
20260506233538 20 5 0.0 6.4 0.00 0.00 0.00 66 1007.3
20260506233043 20 33 1.6 6.4 0.00 0.00 0.00 68 1007.3
20260506232532 20 351 0.0 6.4 0.00 0.00 0.00 66 1007.4
20260506232019 20 33 0.0 4.8 0.00 0.00 0.00 68 1007.3
20260506231551 20 26 0.0 4.8 0.00 0.00 0.00 68 1007.3
20260506231030 20 22 0.0 6.4 0.00 0.00 0.00 68 1007.5
20260506230517 20 9 1.6 6.4 0.00 0.00 0.00 67 1007.5
20260506230049 20 101 0.0 3.2 0.00 0.00 0.00 67 1007.5
20260506225522 20 107 0.0 6.4 0.00 0.00 0.00 68 1007.6
20260506225001 20 328 1.6 6.4 0.00 0.00 0.00 69 1007.6
20260506224522 20 25 0.0 1.6 0.00 0.00 0.00 69 1007.7
20260506224004 20 40 0.0 1.6 0.00 0.00 0.00 69 1007.7
20260506223555 19 90 0.0 1.6 0.00 0.00 0.00 67 1007.8
20260506223017 20 203 0.0 9.7 0.00 0.00 0.00 67 1007.9
20260506222606 20 76 1.6 9.7 0.00 0.00 0.00 68 1007.8
20260506222051 20 17 0.0 6.4 0.00 0.00 0.00 69 1007.9
20260506221603 20 70 0.0 11.3 0.00 0.00 0.00 68 1007.9
20260506221048 20 64 4.8 11.3 0.00 0.00 0.00 68 1007.8
20260506220539 20 68 3.2 9.7 0.00 0.00 0.00 68 1007.9
20260506220058 20 50 3.2 8.0 0.00 0.00 0.00 68 1007.8
20260506215546 20 51 1.6 6.4 0.00 0.00 0.00 67 1007.8
20260506215032 20 323 1.6 9.7 0.00 0.00 0.00 68 1007.8
20260506214555 20 81 1.6 9.7 0.00 0.00 0.00 70 1007.7
20260506214042 20 64 1.6 6.4 0.00 0.00 0.00 69 1007.7
20260506213532 19 55 3.2 6.4 0.00 0.00 0.00 67 1007.8
20260506213103 20 86 0.0 6.4 0.00 0.00 0.00 65 1007.8
20260506212533 20 5 1.6 4.8 0.00 0.00 0.00 66 1007.9
20260506212018 20 134 3.2 9.7 0.00 0.00 0.00 67 1008.0
20260506211554 19 186 0.0 9.7 0.00 0.00 0.00 68 1008.1
20260506211030 19 148 3.2 9.7 0.00 0.00 0.00 67 1008.2
20260506210517 19 111 0.0 8.0 0.00 0.00 0.00 68 1008.1
20260506210037 19 334 3.2 8.0 0.00 0.00 0.00 68 1008.2
20260506205523 19 209 0.0 3.2 0.00 0.00 0.00 69 1008.3
20260506205008 19 35 0.0 9.7 0.00 0.00 0.00 68 1008.3
20260506204527 19 94 1.6 9.7 0.00 0.00 0.00 68 1008.3
20260506204015 18 50 3.2 12.9 0.00 0.00 0.00 68 1008.2
20260506203503 19 272 4.8 12.9 0.00 0.00 0.00 67 1008.2
20260506203023 19 158 3.2 12.9 0.00 0.00 0.00 67 1008.1
20260506202539 19 349 0.0 9.7 0.00 0.00 0.00 69 1008.0
20260506202106 18 243 1.6 9.7 0.00 0.00 0.00 68 1008.1
20260506201532 18 355 1.6 9.7 0.00 0.00 0.00 69 1008.1
20260506201007 20 180 0.0 11.3 0.00 0.00 0.00 66 1008.3
20260506200558 20 190 3.2 11.3 0.00 0.00 0.00 71 1008.3
20260506200014 18 40 3.2 9.7 0.00 0.00 0.00 72 1008.3
20260506195604 18 155 0.0 9.7 0.00 0.00 0.00 70 1008.5
20260506195051 18 154 4.8 9.7 0.00 0.00 0.00 71 1008.5
20260506194525 18 192 3.2 6.4 0.00 0.00 0.00 72 1008.6
20260506194006 18 267 3.2 6.4 0.00 0.00 0.00 70 1008.8
20260506193555 18 84 3.2 6.4 0.00 0.00 0.00 69 1008.8
20260506193005 18 16 0.0 8.0 0.00 0.00 0.00 72 1008.7
20260506192556 18 86 3.2 8.0 0.00 0.00 0.00 72 1008.7
20260506192032 17 342 0.0 6.4 0.00 0.00 0.00 73 1008.8
20260506191554 17 305 1.6 6.4 0.00 0.00 0.00 75 1008.8
20260506191039 17 5 1.6 4.8 0.00 0.00 0.00 73 1008.7
20260506190525 17 85 0.0 8.0 0.00 0.00 0.00 75 1008.7
20260506190032 17 261 1.6 8.0 0.00 0.00 0.00 76 1008.7
20260506185520 17 87 0.0 11.3 0.00 0.00 0.00 74 1008.8
20260506185009 17 195 3.2 11.3 0.00 0.00 0.00 74 1008.7
20260506184528 17 278 4.8 11.3 0.00 0.00 0.00 75 1008.8
20260506184019 16 72 3.2 8.0 0.00 0.00 0.00 75 1008.6
20260506183505 16 301 3.2 8.0 0.00 0.00 0.00 75 1008.5
20260506183045 16 193 1.6 8.0 0.00 0.00 0.00 75 1008.5
20260506182523 16 123 1.6 8.0 0.00 0.00 0.00 76 1008.6
20260506182011 16 184 1.6 6.4 0.00 0.00 0.00 75 1008.7
20260506181537 16 121 1.6 8.0 0.00 0.00 0.00 77 1008.7
20260506181019 16 148 1.6 9.7 0.00 0.00 0.00 76 1008.8
20260506180507 16 114 1.6 9.7 0.00 0.00 0.00 73 1008.8
20260506180028 17 290 3.2 8.0 0.00 0.00 0.00 74 1008.9
20260506175514 16 161 1.6 6.4 0.00 0.00 0.00 76 1008.8
20260506175057 16 158 0.0 9.7 0.00 0.00 0.00 76 1008.8
20260506174513 16 162 1.6 9.7 0.00 0.00 0.00 75 1008.8
20260506174002 16 278 3.2 8.0 0.00 0.00 0.00 76 1008.8
20260506173551 16 256 1.6 6.4 0.00 0.00 0.00 76 1008.8
20260506173010 16 306 0.0 4.8 0.00 0.00 0.00 76 1008.6
20260506172556 16 65 1.6 4.8 0.00 0.00 0.00 77 1008.6
20260506172015 16 319 1.6 8.0 0.00 0.00 0.00 78 1008.5
20260506171542 15 347 1.6 8.0 0.00 0.00 0.00 78 1008.6
20260506171009 15 170 1.6 6.4 0.00 0.00 0.00 78 1008.5
20260506170555 15 134 3.2 6.4 0.00 0.00 0.00 78 1008.5
20260506170014 15 169 0.0 4.8 0.00 0.00 0.00 80 1008.7
20260506165603 15 172 0.0 4.8 0.00 0.00 0.00 79 1008.7
20260506165051 15 173 1.6 8.0 0.00 0.00 0.00 79 1008.7
20260506164510 15 184 1.6 8.0 0.00 0.00 0.00 79 1008.7
20260506164102 15 49 0.0 3.2 0.00 0.00 0.00 79 1008.8
20260506163545 15 49 0.0 3.2 0.00 0.00 0.00 79 1008.7
20260506163003 15 49 0.0 3.2 0.00 0.00 0.00 79 1008.6
20260506162555 15 49 1.6 3.2 0.00 0.00 0.00 80 1008.7
20260506162041 15 49 0.0 4.8 0.00 0.00 0.00 80 1008.7
20260506161511 15 49 1.6 4.8 0.00 0.00 0.00 80 1008.7
20260506161102 15 48 1.6 4.8 0.00 0.00 0.00 80 1008.6
20260506160541 15 25 0.0 4.8 0.00 0.00 0.00 80 1008.5
20260506160115 14 71 1.6 6.4 0.00 0.00 0.00 81 1008.2
20260506155548 14 51 1.6 4.8 0.00 0.00 0.00 81 1008.4
20260506155034 14 294 0.0 3.2 0.00 0.00 0.00 81 1008.3
20260506154604 13 286 0.0 4.8 0.00 0.00 0.00 81 1008.0
20260506154046 13 286 0.0 6.4 0.00 0.00 0.00 82 1008.1
20260506153533 13 258 3.2 6.4 0.00 0.00 0.00 83 1008.0